[[{"header":{"parameterUnit":"m.s-1","parameterCategory":1,"la1":30.2991,"la2":30.254,"lo1":-89.0895,"lo2":-89.0444,"dy":0.0017,"dx":0.0017,"nx":28,"ny":28,"refTime":"2024-08-14T09:00:00:Z","depth":0,"parameterNumber":2,"parameterNumberName":"U-component_of_WINDS"},"data":[0,0,0,0,0,0,0,0,0,0,0,0,0,0,0,0,0,0,0,0,0,0,0,0,0,0,0,0,0,0,0,0,0,0,0,0,0,0,0,0,0,0,0,0,0,0,0,0,0,0,0,0,0,0,0,0,0,0,-1.3861,-1.3862,0,-1.3958,-1.3959,-1.396,-1.3982,-1.3981,-1.3981,-1.398,-1.4081,-1.4085,-1.4088,0,0,0,0,0,0,0,0,0,0,0,0,0,-1.3698,-1.37,-1.3861,-1.3862,-1.3863,-1.3957,-1.3959,-1.396,-1.3982,-1.3981,-1.3981,-1.398,-1.408,-1.4084,-1.4088,0,0,0,0,0,0,0,0,0,0,0,0,0,-1.3779,-1.3701,-1.386,-1.3885,-1.3889,-1.3957,-1.3959,-1.396,-1.3982,-1.3981,-1.398,-1.3979,-1.4079,-1.4084,-1.4089,-1.414,0,0,-1.4104,-1.4106,0,0,0,0,0,0,0,0,-1.3774,-1.3785,-1.3881,-1.3884,-1.3888,-1.3957,-1.3938,-1.4021,-1.3983,-1.3947,-1.398,-1.3979,-1.4041,-1.4049,-1.4069,-1.4145,-1.4149,-1.4105,-1.4108,-1.411,-1.4111,0,0,0,0,0,0,0,-1.3769,-1.3781,-1.3899,-1.3882,-1.3886,-1.3893,-1.3903,-1.3954,-1.3998,-1.395,-1.3952,-1.3963,-1.4043,-1.4065,-1.4072,-1.4151,-1.4104,-1.4109,-1.4112,-1.4114,-1.4274,-1.4275,0,0,0,0,0,0,-1.3758,-1.3776,-1.3896,-1.3902,-1.3827,-1.3896,-1.3908,-1.3936,-1.3998,-1.4006,-1.3964,-1.3963,-1.4057,-1.4066,-1.4076,-1.414,-1.411,-1.4114,-1.4117,-1.4273,-1.4274,-1.4276,0,0,0,0,0,0,-1.3755,-1.3769,-1.3892,-1.384,-1.3856,-1.39,-1.3931,-1.3938,-1.396,-1.4008,-1.4017,-1.3978,-1.4056,-1.4069,-1.4124,-1.4144,-1.4117,-1.4121,-1.4271,-1.4273,-1.4275,-1.4269,0,0,0,0,0,0,-1.375,-1.3767,-1.3786,-1.384,-1.3858,-1.3938,-1.3932,-1.3941,-1.3968,-1.3969,-1.4024,-1.4032,-1.4056,-1.4116,-1.4129,-1.415,-1.4125,-1.427,-1.4272,-1.4274,-1.4268,-1.427,-1.4273,0,0,0,0,0,-1.3744,-1.3781,-1.3787,-1.3802,-1.3883,-1.3939,-1.395,-1.3976,-1.397,-1.399,-1.4021,-1.403,-1.414,-1.4122,-1.4136,-1.4159,-1.4269,-1.4271,-1.4274,-1.4266,-1.427,-1.4273,0,0,0,0,0,0,-1.3729,-1.3789,-1.3796,-1.3851,-1.389,-1.3942,-1.3969,-1.3979,-1.4021,-1.402,-1.4052,-1.4065,-1.4118,-1.4144,-1.4123,-1.4213,-1.4204,-1.421,-1.4193,-1.4197,-1.42,-1.4192,-1.4129,0,0,0,0,0,-1.3733,-1.3772,-1.3822,-1.3866,-1.3885,-1.3923,-1.3949,-1.3966,-1.4008,-1.4024,-1.406,-1.41,-1.4144,-1.4172,-1.4215,-1.4272,-1.4284,-1.4295,-1.4298,-1.43,-1.4304,-1.4337,-1.4342,-1.4285,-1.4285,-1.4285,0,0,-1.374,-1.3777,-1.38,-1.3864,-1.3896,-1.3937,-1.3937,-1.398,-1.4011,-1.4031,-1.4085,-1.4113,-1.416,-1.4217,-1.4243,-1.424,-1.4323,-1.4303,-1.4304,-1.4308,-1.434,-1.4346,-1.4351,-1.4287,-1.4287,-1.4286,0,0,-1.3774,-1.3805,-1.3846,-1.3878,-1.3926,-1.3952,-1.3961,-1.4013,-1.4031,-1.4086,-1.4102,-1.414,-1.4215,-1.4248,-1.4275,-1.4323,-1.4333,-1.4336,-1.4349,-1.4381,-1.4385,-1.439,-1.4407,-1.4413,-1.434,-1.434,-1.434,0,-1.3776,-1.3838,-1.3866,-1.3908,-1.3936,-1.3956,-1.3998,-1.4028,-1.4088,-1.4107,-1.4103,-1.4197,-1.4231,-1.4295,-1.4307,-1.4328,-1.4341,-1.4329,-1.4382,-1.4387,-1.4391,-1.4408,-1.4414,-1.434,-1.434,-1.434,-1.434,0,-1.3839,-1.3882,-1.3909,-1.3966,-1.3997,-1.4039,-1.4074,-1.4103,-1.4118,-1.4144,-1.4201,-1.4241,-1.4293,-1.431,-1.4325,-1.4377,-1.4374,-1.4376,-1.4368,-1.4396,-1.4413,-1.4419,-1.434,-1.434,-1.434,-1.434,0,0,-1.3866,-1.3938,-1.3948,-1.3974,-1.4029,-1.4063,-1.4106,-1.4157,-1.4181,-1.4222,-1.426,-1.4323,-1.4325,-1.4355,-1.4375,-1.4402,-1.4438,-1.4401,-1.4402,-1.4406,-1.4499,-1.4497,-1.4504,-1.4445,-1.4447,-1.4448,-1.4495,0,-1.3907,-1.3984,-1.401,-1.4075,-1.4115,-1.4135,-1.4173,-1.4211,-1.4237,-1.4276,-1.4305,-1.4349,-1.4348,-1.4367,-1.4395,-1.4427,-1.4457,-1.4425,-1.4481,-1.4483,-1.4468,-1.4512,-1.451,-1.4553,-1.4501,-1.4502,-1.4503,0,-1.3964,-1.4005,-1.4073,-1.4124,-1.4142,-1.4175,-1.4224,-1.426,-1.4305,-1.4322,-1.4356,-1.4374,-1.4421,-1.4411,-1.4477,-1.4454,-1.4479,-1.4499,-1.4501,-1.4507,-1.4494,-1.4519,-1.4567,-1.4573,-1.4513,-1.4513,-1.4512,0,-1.3977,-1.405,-1.41,-1.4122,-1.4182,-1.4205,-1.4232,-1.4275,-1.4304,-1.4347,-1.4366,-1.4414,-1.444,-1.4477,-1.4508,-1.4497,-1.4572,-1.4563,-1.4588,-1.4587,-1.4602,-1.4601,-1.4654,-1.4618,-1.4618,-1.4618,-1.4618,0,-1.4019,-1.406,-1.4106,-1.4137,-1.4184,-1.4215,-1.4261,-1.4289,-1.4327,-1.4365,-1.4385,-1.442,-1.4458,-1.4498,-1.4523,-1.4574,-1.4586,-1.4602,-1.4608,-1.46,-1.4598,-1.4616,-1.4614,-1.462,-1.462,-1.4619,-1.4619,0,-1.4041,-1.4073,-1.413,-1.4182,-1.4196,-1.4229,-1.4274,-1.4306,-1.4333,-1.438,-1.4393,-1.4436,-1.4484,-1.4518,-1.4581,-1.4597,-1.4653,-1.4659,-1.4637,-1.464,-1.4663,-1.466,-1.4729,-1.474,-1.4698,-1.4698,-1.4698,0,-1.4066,-1.4097,-1.4153,-1.418,-1.4206,-1.4248,-1.4277,-1.4309,-1.4339,-1.4393,-1.4418,-1.4467,-1.4509,-1.4586,-1.4623,-1.4671,-1.4678,-1.4699,-1.4686,-1.4677,-1.4679,-1.4676,-1.468,-1.4701,-1.4702,-1.4702,-1.4702,0,-1.4106,-1.4121,-1.4162,-1.4209,-1.4243,-1.4282,-1.4321,-1.4341,-1.4381,-1.4413,-1.4463,-1.4495,-1.4559,-1.4608,-1.466,-1.4689,-1.4702,-1.4706,-1.4714,-1.4706,-1.4693,-1.4701,-1.4643,-1.4704,-1.4704,-1.4704,-1.4704,-1.4704,-1.413,-1.416,-1.4204,-1.4249,-1.4282,-1.4318,-1.435,-1.4381,-1.4423,-1.4477,-1.4493,-1.4545,-1.459,-1.4661,-1.469,-1.4731,-1.473,-1.4742,-1.4745,-1.4747,-1.4747,-1.4686,-1.4741,-1.4741,-1.4741,-1.4741,-1.4741,0,-1.4172,-1.4201,-1.4243,-1.4297,-1.4332,-1.4342,-1.4386,-1.4415,-1.446,-1.45,-1.4541,-1.4598,-1.4646,-1.4687,-1.4738,-1.4763,-1.4771,-1.4775,-1.4774,-1.478,-1.4745,-1.4733,-1.4768,-1.4768,-1.4768,-1.4768,-1.4768,-1.4768,-1.4198,-1.4248,-1.4268,-1.4336,-1.4365,-1.4415,-1.4439,-1.4473,-1.4506,-1.4568,-1.4608,-1.4635,-1.4676,-1.473,-1.4775,-1.4786,-1.4803,-1.4806,-1.4819,-1.4786,-1.4782,-1.4779,-1.4768,-1.481,-1.481,-1.485,-1.485,-1.4851]},{"header":{"parameterUnit":"m.s-1","parameterCategory":1,"la1":30.2991,"la2":30.254,"lo1":-89.0895,"lo2":-89.0444,"dy":0.0017,"dx":0.0017,"nx":28,"ny":28,"refTime":"2024-08-14T09:00:00:Z","depth":0,"parameterNumber":3,"parameterNumberName":"V-component_of_WINDS"},"data":[0,0,0,0,0,0,0,0,0,0,0,0,0,0,0,0,0,0,0,0,0,0,0,0,0,0,0,0,0,0,0,0,0,0,0,0,0,0,0,0,0,0,0,0,0,0,0,0,0,0,0,0,0,0,0,0,0,0,2.7992,2.7992,0,2.7987,2.7987,2.7987,2.7945,2.7944,2.7943,2.7942,2.7937,2.7938,2.7939,0,0,0,0,0,0,0,0,0,0,0,0,0,2.7964,2.7965,2.7992,2.7992,2.7992,2.7987,2.7987,2.7987,2.7945,2.7944,2.7943,2.7942,2.7937,2.7938,2.7939,0,0,0,0,0,0,0,0,0,0,0,0,0,2.7969,2.7965,2.7992,2.797,2.7968,2.7987,2.7987,2.7987,2.7946,2.7944,2.7942,2.7941,2.7937,2.7938,2.7939,2.7978,0,0,2.7943,2.7944,0,0,0,0,0,0,0,0,2.7969,2.7971,2.7974,2.7972,2.797,2.7965,2.7976,2.7984,2.7946,2.7954,2.7942,2.794,2.7948,2.7948,2.7951,2.7978,2.7978,2.7943,2.7944,2.7944,2.7945,0,0,0,0,0,0,0,2.7969,2.797,2.799,2.7974,2.7971,2.7961,2.796,2.7977,2.796,2.7953,2.795,2.795,2.7946,2.7949,2.795,2.7978,2.7943,2.7944,2.7945,2.7945,2.8035,2.8037,0,0,0,0,0,0,2.7972,2.797,2.799,2.799,2.7966,2.7963,2.7961,2.7968,2.796,2.7957,2.7952,2.7948,2.7948,2.7949,2.795,2.7993,2.7944,2.7946,2.7946,2.8034,2.8036,2.8037,0,0,0,0,0,0,2.7971,2.7974,2.799,2.7979,2.7981,2.7965,2.7973,2.7969,2.7972,2.7958,2.7955,2.7958,2.7947,2.7948,2.7971,2.7993,2.7946,2.7947,2.8032,2.8034,2.8036,2.8082,0,0,0,0,0,0,2.797,2.7974,2.7989,2.798,2.7981,2.8012,2.7974,2.797,2.7974,2.797,2.7963,2.7961,2.7946,2.7969,2.7972,2.7993,2.7948,2.803,2.8033,2.8036,2.8078,2.8085,2.8092,0,0,0,0,0,2.797,2.8002,2.799,2.7992,2.8,2.8013,2.8014,2.7996,2.7976,2.7991,2.7982,2.7961,2.799,2.7972,2.7975,2.7997,2.8028,2.8032,2.8035,2.8075,2.8084,2.8092,0,0,0,0,0,0,2.8014,2.8001,2.7987,2.8017,2.8017,2.8006,2.8024,2.8007,2.8012,2.8007,2.7985,2.7984,2.801,2.8006,2.7986,2.8034,2.8005,2.801,2.8035,2.8043,2.805,2.8049,2.7949,0,0,0,0,0,2.8027,2.804,2.8027,2.8056,2.8056,2.804,2.8046,2.8032,2.803,2.803,2.8023,2.8022,2.8031,2.8037,2.8045,2.8078,2.8075,2.8095,2.8101,2.8107,2.811,2.8126,2.8134,2.8049,2.8049,2.8049,0,0,2.8055,2.8049,2.8058,2.8064,2.8062,2.8075,2.804,2.8056,2.8064,2.8032,2.8053,2.8048,2.8045,2.8073,2.8085,2.8071,2.8133,2.8112,2.8116,2.8116,2.8131,2.8139,2.8146,2.8052,2.8051,2.8051,0,0,2.8111,2.8109,2.8131,2.813,2.8127,2.8116,2.8122,2.8114,2.8109,2.8129,2.8105,2.8115,2.8132,2.813,2.8132,2.8187,2.8167,2.8191,2.8225,2.824,2.8247,2.8253,2.827,2.8277,2.8194,2.8195,2.8195,0,2.8146,2.8164,2.8145,2.8161,2.8164,2.8135,2.8157,2.8157,2.8157,2.8159,2.8143,2.8162,2.8159,2.8185,2.8198,2.8201,2.8206,2.819,2.8247,2.8253,2.8258,2.8275,2.8282,2.8197,2.8197,2.8197,2.8196,0,2.8205,2.8218,2.8237,2.8236,2.8241,2.8261,2.8244,2.8252,2.8238,2.8228,2.8249,2.8244,2.8249,2.8255,2.8242,2.8279,2.827,2.8252,2.8222,2.8269,2.8284,2.8291,2.8201,2.82,2.8199,2.8199,0,0,2.8288,2.8277,2.8284,2.8283,2.8278,2.8287,2.8305,2.831,2.8315,2.8317,2.833,2.8344,2.8326,2.8328,2.8315,2.8329,2.837,2.8308,2.8307,2.8318,2.8409,2.8422,2.8429,2.8358,2.8359,2.836,2.8409,0,2.834,2.8369,2.8352,2.8384,2.8394,2.8367,2.8383,2.8381,2.8373,2.8381,2.8372,2.8381,2.8358,2.8359,2.8372,2.8363,2.8388,2.8359,2.8369,2.837,2.8368,2.8438,2.8451,2.8497,2.8415,2.8416,2.8416,0,2.8405,2.8408,2.844,2.8431,2.8435,2.8449,2.8451,2.846,2.8457,2.845,2.8452,2.8435,2.8451,2.8424,2.8445,2.8425,2.8429,2.8425,2.8426,2.8425,2.8394,2.8436,2.8511,2.8517,2.8426,2.8425,2.8424,0,2.8459,2.8472,2.8492,2.8492,2.8483,2.8493,2.849,2.8486,2.8489,2.8492,2.8493,2.8498,2.85,2.8504,2.8488,2.847,2.8511,2.8483,2.8504,2.8505,2.8512,2.8512,2.8587,2.8518,2.8518,2.8518,2.8518,0,2.8518,2.8538,2.8516,2.8528,2.855,2.853,2.8552,2.8546,2.8542,2.8552,2.8531,2.854,2.852,2.8528,2.8516,2.8534,2.8536,2.853,2.8526,2.8531,2.8531,2.8531,2.8527,2.852,2.852,2.8519,2.8519,0,2.8582,2.8568,2.8588,2.8578,2.8575,2.8591,2.8582,2.8593,2.8584,2.8597,2.8599,2.8584,2.8592,2.8577,2.8584,2.8576,2.86,2.8593,2.8601,2.8598,2.8619,2.8617,2.8695,2.8704,2.8632,2.8633,2.8633,0,2.8619,2.8634,2.8625,2.863,2.8628,2.8636,2.8639,2.8621,2.8626,2.8623,2.8634,2.864,2.8644,2.8658,2.8647,2.8652,2.8643,2.867,2.8643,2.8647,2.864,2.8639,2.8639,2.8675,2.8676,2.8676,2.8677,0,2.8686,2.8678,2.8684,2.8687,2.8691,2.8693,2.8693,2.8698,2.8679,2.8685,2.8692,2.8695,2.8701,2.8707,2.8709,2.8705,2.8688,2.8686,2.8691,2.8694,2.8697,2.8694,2.8614,2.8684,2.8683,2.8682,2.8682,2.8682,2.8736,2.8747,2.8742,2.8749,2.8747,2.8747,2.8756,2.8747,2.8753,2.8756,2.8746,2.8755,2.8751,2.8752,2.875,2.8757,2.8745,2.8753,2.8754,2.8756,2.8758,2.8698,2.8758,2.8758,2.8758,2.8758,2.8757,0,2.88,2.8795,2.8802,2.8802,2.8807,2.879,2.8789,2.8794,2.8803,2.8801,2.8805,2.8813,2.8818,2.8809,2.8812,2.882,2.8811,2.8821,2.8819,2.8818,2.877,2.8764,2.8827,2.8827,2.8827,2.8827,2.8827,2.8827,2.8834,2.8851,2.8842,2.8858,2.8853,2.8862,2.8863,2.8863,2.886,2.887,2.8875,2.8868,2.8863,2.8866,2.887,2.8867,2.8868,2.888,2.8874,2.8829,2.8822,2.8815,2.881,2.8881,2.8881,2.8921,2.8922,2.8922]}]]